ASIASAT 5

Last updated on Mon Oct 14 2024 00:02:38 GMT+0000 (Coordinated Universal Time)

1 35696U 09042A 24287.57336006 -.00000309 00000+0 00000+0 0 9998 2 35696 0.0253 121.7402 0001716 82.0927 125.7081 1.00269419 55579
UTC large
Height (km)
Speed (km/s)
/
Latitude / Longitude
Inclination (degrees)
Orbital Period (minutes)
Azimuth
Elevation
Range (km)
Doppler Factor

Next 0 passes for location: London (51.5072 / 0.1276)

Sorry there are no passes over London.